Location: ???????
(55.3754°N, 39.3545°E)
Time: 11:09:38
(UTC+00:00)

Cosmos 2369 - Pass Details

Date: 14 April 2026
Orbit: 838 x 855 km, 71.0° (Epoch: 10 May)

Event Time Altitude Azimuth Distance (km) Brightness Sun altitude
Rises 22:37:17 0° 325° (NW) 3,415 7.3 -23.1°
Reaches altitude 10° 22:39:48 10° 330° (NNW) 2,479 6.6 -23.0°
Maximum altitude 22:45:24 55° 48° (NE) 1,015 4.3 -22.7°
Drops below altitude 10° 22:50:59 10° 126° (SE) 2,477 6.0 -22.4°
Sets 22:53:29 0° 131° (SE) 3,412 6.7 -22.2°
